Time,TemperatureF,DewpointF,PressureIn,WindDirection,WindDirectionDegrees,WindSpeedMPH,WindSpeedGustMPH,Humidity,HourlyPrecipIn,Conditions,Clouds,dailyrainin,SoftwareType,DateUTC
2013-05-16 00:01:00,50.9,49.5,29.59,WNW,296,0.0,0.0,95,0.00,,---,0.00,VWS V13.01,2013-05-16 04:01:00,
2013-05-16 00:02:00,50.9,49.5,29.59,WNW,296,0.0,0.0,95,0.00,,---,0.00,VWS V13.01,2013-05-16 04:02:00,
2013-05-16 00:03:00,50.8,49.4,29.59,WNW,296,0.0,0.0,95,0.00,,---,0.00,VWS V13.01,2013-05-16 04:03:00,
2013-05-16 00:05:00,50.8,49.4,29.59,WNW,296,0.0,0.0,95,0.00,,---,0.00,VWS V13.01,2013-05-16 04:05:00,
2013-05-16 00:10:00,50.8,49.4,29.59,WNW,296,0.0,0.0,95,0.00,,---,0.00,VWS V13.01,2013-05-16 04:10:00,
2013-05-16 00:15:00,50.8,49.4,29.59,WNW,296,0.0,0.0,95,0.00,,---,0.00,VWS V13.01,2013-05-16 04:15:00,
2013-05-16 00:20:00,50.8,49.4,29.59,WNW,296,0.0,0.0,95,0.00,,---,0.00,VWS V13.01,2013-05-16 04:20:00,
2013-05-16 00:26:00,50.8,49.4,29.58,WNW,296,0.0,0.0,95,0.00,,---,0.00,VWS V13.01,2013-05-16 04:26:00,
2013-05-16 00:31:00,50.8,49.4,29.58,WNW,296,0.0,0.0,95,0.00,,---,0.00,VWS V13.01,2013-05-16 04:31:00,
2013-05-16 00:36:00,50.9,49.5,29.58,WNW,296,0.0,0.0,95,0.00,,---,0.00,VWS V13.01,2013-05-16 04:36:00,
2013-05-16 00:41:00,50.9,49.5,29.58,WNW,296,0.0,0.0,95,0.00,,---,0.00,VWS V13.01,2013-05-16 04:41:00,
2013-05-16 00:46:00,50.9,49.5,29.58,WNW,296,0.0,1.0,95,0.00,,---,0.00,VWS V13.01,2013-05-16 04:46:00,
2013-05-16 00:51:00,51.0,49.6,29.58,WNW,296,0.0,1.0,95,0.00,,---,0.00,VWS V13.01,2013-05-16 04:51:00,
2013-05-16 00:56:00,51.0,49.6,29.58,WNW,296,0.0,1.0,95,0.00,,---,0.00,VWS V13.01,2013-05-16 04:56:00,
2013-05-16 01:01:00,50.9,49.5,29.58,WNW,296,0.0,0.0,95,0.00,,---,0.00,VWS V13.01,2013-05-16 05:01:00,
2013-05-16 01:06:00,50.8,49.4,29.58,WNW,296,0.0,1.0,95,0.00,,---,0.00,VWS V13.01,2013-05-16 05:06:00,
2013-05-16 01:11:00,50.7,49.3,29.58,WNW,296,1.0,2.0,95,0.00,,---,0.00,VWS V13.01,2013-05-16 05:11:00,
2013-05-16 01:16:00,50.5,49.1,29.58,WNW,296,0.0,2.0,95,0.00,,---,0.00,VWS V13.01,2013-05-16 05:16:00,
2013-05-16 01:21:00,50.1,48.7,29.58,WNW,296,0.0,2.0,95,0.00,,---,0.00,VWS V13.01,2013-05-16 05:21:00,
2013-05-16 01:26:00,49.8,48.4,29.58,WNW,296,0.0,2.0,95,0.00,,---,0.00,VWS V13.01,2013-05-16 05:26:00,
2013-05-16 01:31:00,49.7,48.3,29.58,WNW,296,0.0,0.0,95,0.00,,---,0.00,VWS V13.01,2013-05-16 05:31:00,
2013-05-16 01:36:00,49.6,48.2,29.58,WNW,296,0.0,0.0,95,0.00,,---,0.00,VWS V13.01,2013-05-16 05:36:00,
2013-05-16 01:41:00,49.5,48.1,29.58,WNW,296,0.0,0.0,95,0.00,,---,0.00,VWS V13.01,2013-05-16 05:41:00,
2013-05-16 01:47:00,49.6,48.5,29.59,WNW,296,0.0,0.0,96,0.00,,---,0.00,VWS V13.01,2013-05-16 05:47:00,
2013-05-16 01:52:00,49.4,48.0,29.59,WNW,296,2.0,3.0,95,0.00,,---,0.00,VWS V13.01,2013-05-16 05:52:00,
2013-05-16 01:57:00,49.3,48.2,29.59,WNW,296,0.0,3.0,96,0.00,,---,0.00,VWS V13.01,2013-05-16 05:57:00,
2013-05-16 02:02:00,49.6,48.5,29.59,WNW,296,0.0,0.0,96,0.00,,---,0.00,VWS V13.01,2013-05-16 06:02:00,
2013-05-16 02:07:00,49.6,48.5,29.58,WNW,296,0.0,0.0,96,0.00,,---,0.00,VWS V13.01,2013-05-16 06:07:00,
2013-05-16 02:12:00,49.5,48.4,29.59,WNW,296,0.0,1.0,96,0.00,,---,0.00,VWS V13.01,2013-05-16 06:12:00,
2013-05-16 02:17:00,49.4,48.3,29.58,WNW,296,0.0,1.0,96,0.00,,---,0.00,VWS V13.01,2013-05-16 06:17:00,
2013-05-16 02:22:00,49.4,48.3,29.58,WNW,296,0.0,1.0,96,0.00,,---,0.00,VWS V13.01,2013-05-16 06:22:00,
2013-05-16 02:27:00,49.4,48.3,29.58,WNW,296,0.0,1.0,96,0.00,,---,0.00,VWS V13.01,2013-05-16 06:27:00,
2013-05-16 02:32:00,49.2,48.1,29.59,WNW,296,0.0,0.0,96,0.00,,---,0.00,VWS V13.01,2013-05-16 06:32:00,
2013-05-16 02:37:00,48.9,47.8,29.58,WNW,296,0.0,0.0,96,0.00,,---,0.00,VWS V13.01,2013-05-16 06:37:00,
2013-05-16 02:42:00,48.9,47.8,29.58,WNW,296,0.0,0.0,96,0.00,,---,0.00,VWS V13.01,2013-05-16 06:42:00,
2013-05-16 02:47:00,49.1,48.0,29.58,WNW,296,0.0,0.0,96,0.00,,---,0.00,VWS V13.01,2013-05-16 06:47:00,
2013-05-16 02:52:00,49.1,48.0,29.58,WNW,296,0.0,0.0,96,0.00,,---,0.00,VWS V13.01,2013-05-16 06:52:00,
2013-05-16 02:57:00,48.9,47.8,29.58,WNW,296,0.0,0.0,96,0.00,,---,0.00,VWS V13.01,2013-05-16 06:57:00,
2013-05-16 03:03:00,48.8,47.7,29.58,WNW,296,0.0,0.0,96,0.00,,---,0.00,VWS V13.01,2013-05-16 07:03:00,
2013-05-16 03:08:00,48.7,47.6,29.59,WNW,296,0.0,0.0,96,0.00,,---,0.00,VWS V13.01,2013-05-16 07:08:00,
2013-05-16 03:13:00,48.7,47.6,29.59,WNW,296,0.0,0.0,96,0.00,,---,0.00,VWS V13.01,2013-05-16 07:13:00,
2013-05-16 03:18:00,48.3,47.2,29.58,WNW,296,0.0,0.0,96,0.00,,---,0.00,VWS V13.01,2013-05-16 07:18:00,
2013-05-16 03:24:00,47.9,46.8,29.58,WNW,296,0.0,0.0,96,0.00,,---,0.00,VWS V13.01,2013-05-16 07:24:00,
2013-05-16 03:29:00,47.4,46.3,29.58,WNW,296,0.0,0.0,96,0.00,,---,0.00,VWS V13.01,2013-05-16 07:29:00,
2013-05-16 03:34:00,47.5,46.4,29.58,WNW,296,0.0,0.0,96,0.00,,---,0.00,VWS V13.01,2013-05-16 07:34:00,
2013-05-16 03:39:00,47.5,46.4,29.58,WNW,296,0.0,0.0,96,0.00,,---,0.00,VWS V13.01,2013-05-16 07:39:00,
2013-05-16 03:44:00,47.5,46.4,29.59,WNW,296,0.0,0.0,96,0.00,,---,0.00,VWS V13.01,2013-05-16 07:44:00,
2013-05-16 03:49:00,47.4,46.3,29.59,WNW,296,0.0,0.0,96,0.00,,---,0.00,VWS V13.01,2013-05-16 07:49:00,
2013-05-16 03:54:00,47.3,46.2,29.59,WNW,296,0.0,0.0,96,0.00,,---,0.00,VWS V13.01,2013-05-16 07:54:00,
2013-05-16 04:00:00,47.2,46.4,29.59,WNW,296,0.0,0.0,97,0.00,,---,0.00,VWS V13.01,2013-05-16 08:00:00,
2013-05-16 04:05:00,47.0,46.2,29.59,WNW,296,0.0,0.0,97,0.00,,---,0.00,VWS V13.01,2013-05-16 08:05:00,
2013-05-16 04:10:00,47.0,46.2,29.59,WNW,296,0.0,0.0,97,0.00,,---,0.00,VWS V13.01,2013-05-16 08:10:00,
2013-05-16 04:15:00,47.0,46.2,29.59,WNW,296,0.0,0.0,97,0.00,,---,0.00,VWS V13.01,2013-05-16 08:15:00,
2013-05-16 04:20:00,46.8,46.0,29.59,WNW,296,0.0,0.0,97,0.00,,---,0.00,VWS V13.01,2013-05-16 08:20:00,
2013-05-16 04:25:00,46.6,45.8,29.59,WNW,296,0.0,0.0,97,0.00,,---,0.00,VWS V13.01,2013-05-16 08:25:00,
2013-05-16 04:30:00,46.7,45.9,29.60,WNW,296,0.0,0.0,97,0.00,,---,0.00,VWS V13.01,2013-05-16 08:30:00,
2013-05-16 04:35:00,46.7,45.9,29.60,WNW,296,0.0,0.0,97,0.00,,---,0.00,VWS V13.01,2013-05-16 08:35:00,
2013-05-16 04:40:00,46.7,45.9,29.60,WNW,296,0.0,0.0,97,0.00,,---,0.00,VWS V13.01,2013-05-16 08:40:00,
2013-05-16 04:45:00,46.5,45.7,29.60,WNW,296,0.0,0.0,97,0.00,,---,0.00,VWS V13.01,2013-05-16 08:45:00,
2013-05-16 04:50:00,46.4,45.6,29.60,WNW,296,0.0,0.0,97,0.00,,---,0.00,VWS V13.01,2013-05-16 08:50:00,
2013-05-16 04:55:00,46.3,45.5,29.60,WNW,296,0.0,1.0,97,0.00,,---,0.00,VWS V13.01,2013-05-16 08:55:00,
2013-05-16 05:00:00,46.1,45.3,29.61,WNW,296,0.0,0.0,97,0.00,,---,0.00,VWS V13.01,2013-05-16 09:00:00,
2013-05-16 05:05:00,46.1,45.3,29.61,WNW,296,0.0,0.0,97,0.00,,---,0.00,VWS V13.01,2013-05-16 09:05:00,
2013-05-16 05:10:00,45.8,45.0,29.60,WNW,296,0.0,0.0,97,0.00,,---,0.00,VWS V13.01,2013-05-16 09:10:00,
2013-05-16 05:15:00,45.9,45.1,29.60,WNW,296,0.0,0.0,97,0.00,,---,0.00,VWS V13.01,2013-05-16 09:15:00,
2013-05-16 05:20:00,45.8,45.0,29.61,WNW,296,0.0,0.0,97,0.00,,---,0.00,VWS V13.01,2013-05-16 09:20:00,
2013-05-16 05:26:00,45.6,44.8,29.61,WNW,296,0.0,0.0,97,0.00,,---,0.00,VWS V13.01,2013-05-16 09:26:00,
2013-05-16 05:31:00,45.5,44.7,29.61,WNW,296,0.0,0.0,97,0.00,,---,0.00,VWS V13.01,2013-05-16 09:31:00,
2013-05-16 05:36:00,45.6,44.8,29.61,WNW,296,0.0,0.0,97,0.00,,---,0.00,VWS V13.01,2013-05-16 09:36:00,
2013-05-16 05:41:00,45.8,45.0,29.61,WNW,296,0.0,0.0,97,0.00,,---,0.00,VWS V13.01,2013-05-16 09:41:00,
2013-05-16 05:46:00,45.5,44.7,29.61,WNW,296,0.0,0.0,97,0.00,,---,0.00,VWS V13.01,2013-05-16 09:46:00,
2013-05-16 05:51:00,45.4,44.6,29.61,WNW,296,0.0,0.0,97,0.00,,---,0.00,VWS V13.01,2013-05-16 09:51:00,
2013-05-16 05:56:00,45.2,44.4,29.62,WNW,296,0.0,0.0,97,0.00,,---,0.00,VWS V13.01,2013-05-16 09:56:00,
2013-05-16 06:01:00,45.3,44.5,29.62,WNW,296,0.0,0.0,97,0.00,,---,0.00,VWS V13.01,2013-05-16 10:01:00,
2013-05-16 06:06:00,45.2,44.4,29.62,WNW,296,0.0,0.0,97,0.00,,---,0.00,VWS V13.01,2013-05-16 10:06:00,
2013-05-16 06:11:00,44.9,44.1,29.62,WNW,296,0.0,0.0,97,0.00,,---,0.00,VWS V13.01,2013-05-16 10:11:00,
2013-05-16 06:16:00,44.6,43.8,29.62,WNW,296,0.0,0.0,97,0.00,,---,0.00,VWS V13.01,2013-05-16 10:16:00,
2013-05-16 06:21:00,45.0,44.2,29.62,WNW,296,0.0,0.0,97,0.00,,---,0.00,VWS V13.01,2013-05-16 10:21:00,
2013-05-16 06:26:00,45.3,44.5,29.62,WNW,296,0.0,0.0,97,0.00,,---,0.00,VWS V13.01,2013-05-16 10:26:00,
2013-05-16 06:31:00,45.2,44.4,29.63,WNW,296,0.0,0.0,97,0.00,,---,0.00,VWS V13.01,2013-05-16 10:31:00,
2013-05-16 06:36:00,45.2,44.4,29.62,WNW,296,0.0,0.0,97,0.00,,---,0.00,VWS V13.01,2013-05-16 10:36:00,
2013-05-16 06:42:00,45.2,44.4,29.63,WNW,296,0.0,0.0,97,0.00,,---,0.00,VWS V13.01,2013-05-16 10:42:00,
2013-05-16 06:47:00,45.2,44.4,29.63,WNW,296,0.0,0.0,97,0.00,,---,0.00,VWS V13.01,2013-05-16 10:47:00,
2013-05-16 06:52:00,45.3,44.5,29.63,WNW,296,0.0,0.0,97,0.00,,---,0.00,VWS V13.01,2013-05-16 10:52:00,
2013-05-16 06:57:00,45.6,44.8,29.63,WNW,296,0.0,1.0,97,0.00,,---,0.00,VWS V13.01,2013-05-16 10:57:00,
2013-05-16 07:02:00,46.0,45.2,29.63,WNW,296,0.0,0.0,97,0.00,,---,0.00,VWS V13.01,2013-05-16 11:02:00,
2013-05-16 07:07:00,46.4,45.9,29.63,WNW,296,0.0,0.0,98,0.00,,---,0.00,VWS V13.01,2013-05-16 11:07:00,
2013-05-16 07:12:00,46.8,46.3,29.64,WNW,296,0.0,1.0,98,0.00,,---,0.00,VWS V13.01,2013-05-16 11:12:00,
2013-05-16 07:17:00,47.1,46.6,29.64,WNW,296,0.0,1.0,98,0.00,,---,0.00,VWS V13.01,2013-05-16 11:17:00,
2013-05-16 07:22:00,47.4,46.9,29.64,WNW,296,0.0,1.0,98,0.00,,---,0.00,VWS V13.01,2013-05-16 11:22:00,
2013-05-16 07:27:00,47.7,47.2,29.64,WNW,296,0.0,1.0,98,0.00,,---,0.00,VWS V13.01,2013-05-16 11:27:00,
2013-05-16 07:32:00,48.0,47.5,29.64,WNW,296,0.0,0.0,98,0.00,,---,0.00,VWS V13.01,2013-05-16 11:32:00,
2013-05-16 07:37:00,48.3,47.8,29.64,WNW,296,0.0,0.0,98,0.00,,---,0.00,VWS V13.01,2013-05-16 11:37:00,
2013-05-16 07:42:00,48.9,48.4,29.64,WNW,296,0.0,0.0,98,0.00,,---,0.00,VWS V13.01,2013-05-16 11:42:00,
2013-05-16 07:47:00,49.4,48.9,29.64,WNW,296,0.0,0.0,98,0.00,,---,0.00,VWS V13.01,2013-05-16 11:47:00,
2013-05-16 07:53:00,50.0,49.5,29.64,WNW,296,0.0,0.0,98,0.00,,---,0.00,VWS V13.01,2013-05-16 11:53:00,
2013-05-16 07:58:00,50.5,50.0,29.65,WNW,296,0.0,0.0,98,0.00,,---,0.00,VWS V13.01,2013-05-16 11:58:00,
2013-05-16 08:03:00,50.8,50.3,29.64,WNW,296,0.0,0.0,98,0.00,,---,0.00,VWS V13.01,2013-05-16 12:03:00,
2013-05-16 08:08:00,51.0,50.5,29.65,WNW,296,0.0,0.0,98,0.00,,---,0.00,VWS V13.01,2013-05-16 12:08:00,
2013-05-16 08:13:00,51.4,50.9,29.65,WNW,296,0.0,0.0,98,0.00,,---,0.00,VWS V13.01,2013-05-16 12:13:00,
2013-05-16 08:18:00,52.3,51.8,29.65,WNW,296,0.0,0.0,98,0.00,,---,0.00,VWS V13.01,2013-05-16 12:18:00,
2013-05-16 08:23:00,53.0,52.5,29.65,WNW,296,0.0,0.0,98,0.00,,---,0.00,VWS V13.01,2013-05-16 12:23:00,
2013-05-16 08:28:00,53.5,53.0,29.65,WNW,296,0.0,1.0,98,0.00,,---,0.00,VWS V13.01,2013-05-16 12:28:00,
2013-05-16 08:33:00,53.7,52.9,29.65,WNW,296,0.0,1.0,97,0.00,,---,0.00,VWS V13.01,2013-05-16 12:33:00,
2013-05-16 08:38:00,54.3,53.5,29.65,WNW,296,0.0,1.0,97,0.00,,---,0.00,VWS V13.01,2013-05-16 12:38:00,
2013-05-16 08:43:00,55.0,54.2,29.65,WNW,296,0.0,1.0,97,0.00,,---,0.00,VWS V13.01,2013-05-16 12:43:00,
2013-05-16 08:48:00,55.6,54.5,29.66,WNW,296,0.0,1.0,96,0.00,,---,0.00,VWS V13.01,2013-05-16 12:48:00,
2013-05-16 08:53:00,56.7,55.3,29.66,WNW,296,0.0,1.0,95,0.00,,---,0.00,VWS V13.01,2013-05-16 12:53:00,
2013-05-16 08:58:00,57.7,55.7,29.65,WNW,296,0.0,1.0,93,0.00,,---,0.00,VWS V13.01,2013-05-16 12:58:00,
2013-05-16 09:03:00,58.5,55.9,29.65,WNW,296,0.0,0.0,91,0.00,,---,0.00,VWS V13.01,2013-05-16 13:03:00,
2013-05-16 09:08:00,59.0,55.5,29.65,WNW,296,0.0,1.0,88,0.00,,---,0.00,VWS V13.01,2013-05-16 13:08:00,
2013-05-16 09:13:00,59.8,55.9,29.65,WNW,296,0.0,1.0,87,0.00,,---,0.00,VWS V13.01,2013-05-16 13:13:00,
2013-05-16 09:19:00,60.8,56.6,29.65,WNW,296,0.0,1.0,86,0.00,,---,0.00,VWS V13.01,2013-05-16 13:19:00,
2013-05-16 09:24:00,61.9,56.0,29.65,WNW,296,0.0,1.0,81,0.00,,---,0.00,VWS V13.01,2013-05-16 13:24:00,
2013-05-16 09:29:00,62.8,54.8,29.65,WNW,296,0.0,4.0,75,0.00,,---,0.00,VWS V13.01,2013-05-16 13:29:00,
2013-05-16 09:34:00,63.1,54.3,29.65,WNW,296,0.0,5.0,73,0.00,,---,0.00,VWS V13.01,2013-05-16 13:34:00,
2013-05-16 09:39:00,63.5,54.3,29.64,WNW,296,1.0,5.0,72,0.00,,---,0.00,VWS V13.01,2013-05-16 13:39:00,
2013-05-16 09:44:00,64.2,53.4,29.65,WNW,296,0.0,5.0,68,0.00,,---,0.00,VWS V13.01,2013-05-16 13:44:00,
2013-05-16 09:49:00,65.1,52.6,29.64,WNW,296,0.0,5.0,64,0.00,,---,0.00,VWS V13.01,2013-05-16 13:49:00,
2013-05-16 09:54:00,66.0,53.1,29.64,WNW,296,2.0,5.0,63,0.00,,---,0.00,VWS V13.01,2013-05-16 13:54:00,
2013-05-16 09:59:00,66.8,53.4,29.64,WNW,296,4.0,6.0,62,0.00,,---,0.00,VWS V13.01,2013-05-16 13:59:00,
2013-05-16 10:04:00,67.4,52.1,29.64,WNW,296,2.0,6.0,58,0.00,,---,0.00,VWS V13.01,2013-05-16 14:04:00,
2013-05-16 10:09:00,68.0,51.2,29.64,WNW,296,0.0,7.0,55,0.00,,---,0.00,VWS V13.01,2013-05-16 14:09:00,
2013-05-16 10:14:00,68.4,50.1,29.64,WNW,296,0.0,7.0,52,0.00,,---,0.00,VWS V13.01,2013-05-16 14:14:00,
2013-05-16 10:19:00,68.8,50.5,29.64,WNW,296,4.0,8.0,52,0.00,,---,0.00,VWS V13.01,2013-05-16 14:19:00,
2013-05-16 10:25:00,69.2,50.3,29.64,WNW,296,0.0,8.0,51,0.00,,---,0.00,VWS V13.01,2013-05-16 14:25:00,
2013-05-16 10:30:00,69.8,47.5,29.64,WNW,296,0.0,8.0,45,0.00,,---,0.00,VWS V13.01,2013-05-16 14:30:00,
2013-05-16 10:35:00,70.3,49.7,29.64,WNW,299,7.0,12.0,48,0.00,,---,0.00,VWS V13.01,2013-05-16 14:35:00,
2013-05-16 10:40:00,70.7,49.5,29.64,WNW,284,12.0,13.0,47,0.00,,---,0.00,VWS V13.01,2013-05-16 14:40:00,
2013-05-16 10:45:00,70.8,47.8,29.65,NW,308,12.0,15.0,44,0.00,,---,0.00,VWS V13.01,2013-05-16 14:45:00,
2013-05-16 10:50:00,70.8,49.6,29.65,NW,309,10.0,19.0,47,0.00,,---,0.00,VWS V13.01,2013-05-16 14:50:00,
2013-05-16 10:55:00,70.9,48.5,29.65,WNW,298,9.0,19.0,45,0.00,,---,0.00,VWS V13.01,2013-05-16 14:55:00,
2013-05-16 11:00:00,71.0,46.8,29.65,WNW,291,14.0,21.0,42,0.00,,---,0.00,VWS V13.01,2013-05-16 15:00:00,
2013-05-16 11:05:00,71.0,47.4,29.65,WNW,296,6.0,21.0,43,0.00,,---,0.00,VWS V13.01,2013-05-16 15:05:00,
2013-05-16 11:10:00,71.3,48.9,29.65,WNW,290,9.0,21.0,45,0.00,,---,0.00,VWS V13.01,2013-05-16 15:10:00,
2013-05-16 11:15:00,71.7,48.0,29.66,NW,307,4.0,21.0,43,0.00,,---,0.00,VWS V13.01,2013-05-16 15:15:00,
2013-05-16 11:20:00,71.9,47.6,29.65,NNE,17,7.0,21.0,42,0.00,,---,0.00,VWS V13.01,2013-05-16 15:20:00,
2013-05-16 11:25:00,71.9,48.8,29.65,NW,307,5.0,21.0,44,0.00,,---,0.00,VWS V13.01,2013-05-16 15:25:00,
2013-05-16 11:30:00,71.9,50.0,29.65,NW,319,11.0,11.0,46,0.00,,---,0.00,VWS V13.01,2013-05-16 15:30:00,
2013-05-16 11:35:00,71.9,47.0,29.65,WNW,288,7.0,19.0,41,0.00,,---,0.00,VWS V13.01,2013-05-16 15:35:00,
2013-05-16 11:40:00,72.1,47.8,29.66,WNW,298,11.0,19.0,42,0.00,,---,0.00,VWS V13.01,2013-05-16 15:40:00,
2013-05-16 11:45:00,72.3,48.0,29.66,NW,308,9.0,19.0,42,0.00,,---,0.00,VWS V13.01,2013-05-16 15:45:00,
2013-05-16 11:51:00,72.4,49.3,29.65,West,278,11.0,19.0,44,0.00,,---,0.00,VWS V13.01,2013-05-16 15:51:00,
2013-05-16 11:56:00,72.5,50.0,29.66,NW,324,11.0,19.0,45,0.00,,---,0.00,VWS V13.01,2013-05-16 15:56:00,
2013-05-16 12:01:00,72.5,46.8,29.66,NW,316,8.0,11.0,40,0.00,,---,0.00,VWS V13.01,2013-05-16 16:01:00,
2013-05-16 12:06:00,72.6,48.8,29.66,West,269,11.0,21.0,43,0.00,,---,0.00,VWS V13.01,2013-05-16 16:06:00,
2013-05-16 12:11:00,72.6,48.2,29.66,West,268,22.0,26.0,42,0.00,,---,0.00,VWS V13.01,2013-05-16 16:11:00,
2013-05-16 12:16:00,72.4,49.3,29.66,WNW,294,6.0,26.0,44,0.00,,---,0.00,VWS V13.01,2013-05-16 16:16:00,
2013-05-16 12:21:00,72.6,46.2,29.66,NNW,330,7.0,26.0,39,0.00,,---,0.00,VWS V13.01,2013-05-16 16:21:00,
2013-05-16 12:26:00,72.7,45.7,29.65,WNW,300,11.0,26.0,38,0.00,,---,0.00,VWS V13.01,2013-05-16 16:26:00,
2013-05-16 12:31:00,73.1,48.7,29.65,WNW,290,18.0,21.0,42,0.00,,---,0.00,VWS V13.01,2013-05-16 16:31:00,
2013-05-16 12:36:00,73.3,53.0,29.65,WNW,294,9.0,23.0,49,0.00,,---,0.00,VWS V13.01,2013-05-16 16:36:00,
2013-05-16 12:41:00,73.4,47.0,29.65,WNW,298,11.0,23.0,39,0.00,,---,0.00,VWS V13.01,2013-05-16 16:41:00,
2013-05-16 12:46:00,73.4,47.0,29.65,WSW,241,14.0,24.0,39,0.00,,---,0.00,VWS V13.01,2013-05-16 16:46:00,
2013-05-16 12:51:00,73.3,46.2,29.66,NW,306,10.0,27.0,38,0.00,,---,0.00,VWS V13.01,2013-05-16 16:51:00,
2013-05-16 12:57:00,73.4,47.0,29.66,NW,305,11.0,27.0,39,0.00,,---,0.00,VWS V13.01,2013-05-16 16:57:00,
2013-05-16 13:02:00,73.5,45.7,29.65,NNE,15,9.0,11.0,37,0.00,,---,0.00,VWS V13.01,2013-05-16 17:02:00,
2013-05-16 13:07:00,73.7,47.9,29.65,NW,312,11.0,16.0,40,0.00,,---,0.00,VWS V13.01,2013-05-16 17:07:00,
2013-05-16 13:12:00,73.5,47.0,29.65,NW,307,14.0,21.0,39,0.00,,---,0.00,VWS V13.01,2013-05-16 17:12:00,
2013-05-16 13:17:00,74.0,48.2,29.65,WNW,288,20.0,22.0,40,0.00,,---,0.00,VWS V13.01,2013-05-16 17:17:00,
2013-05-16 13:22:00,74.0,48.8,29.65,WNW,294,14.0,25.0,41,0.00,,---,0.00,VWS V13.01,2013-05-16 17:22:00,
2013-05-16 13:27:00,73.9,47.4,29.65,WNW,286,8.0,25.0,39,0.00,,---,0.00,VWS V13.01,2013-05-16 17:27:00,
2013-05-16 13:32:00,74.1,46.9,29.65,NW,307,10.0,16.0,38,0.00,,---,0.00,VWS V13.01,2013-05-16 17:32:00,
2013-05-16 13:37:00,74.4,51.7,29.65,West,259,20.0,25.0,45,0.00,,---,0.00,VWS V13.01,2013-05-16 17:37:00,
2013-05-16 13:42:00,74.2,49.0,29.66,WNW,298,14.0,26.0,41,0.00,,---,0.00,VWS V13.01,2013-05-16 17:42:00,
2013-05-16 13:47:00,74.1,47.6,29.65,WNW,296,8.0,26.0,39,0.00,,---,0.00,VWS V13.01,2013-05-16 17:47:00,
2013-05-16 13:52:00,74.4,47.2,29.65,West,272,21.0,26.0,38,0.00,,---,0.00,VWS V13.01,2013-05-16 17:52:00,
2013-05-16 13:57:00,74.5,48.6,29.65,NW,321,12.0,26.0,40,0.00,,---,0.00,VWS V13.01,2013-05-16 17:57:00,
2013-05-16 14:02:00,74.1,46.9,29.65,WNW,290,12.0,15.0,38,0.00,,---,0.00,VWS V13.01,2013-05-16 18:02:00,
2013-05-16 14:07:00,74.6,50.7,29.65,West,281,16.0,24.0,43,0.00,,---,0.00,VWS V13.01,2013-05-16 18:07:00,
2013-05-16 14:12:00,74.1,47.6,29.66,West,267,20.0,25.0,39,0.00,,---,0.00,VWS V13.01,2013-05-16 18:12:00,
2013-05-16 14:18:00,74.1,46.2,29.66,WNW,290,15.0,25.0,37,0.00,,---,0.00,VWS V13.01,2013-05-16 18:18:00,
2013-05-16 14:23:00,74.3,44.9,29.66,NNW,330,12.0,25.0,35,0.00,,---,0.00,VWS V13.01,2013-05-16 18:23:00,
2013-05-16 14:28:00,74.3,46.4,29.66,NW,308,11.0,25.0,37,0.00,,---,0.00,VWS V13.01,2013-05-16 18:28:00,
2013-05-16 14:33:00,74.6,51.3,29.66,WNW,297,13.0,20.0,44,0.00,,---,0.00,VWS V13.01,2013-05-16 18:33:00,
2013-05-16 14:38:00,74.8,47.5,29.65,West,281,12.0,20.0,38,0.00,,---,0.00,VWS V13.01,2013-05-16 18:38:00,
2013-05-16 14:43:00,74.7,48.8,29.66,NW,320,12.0,23.0,40,0.00,,---,0.00,VWS V13.01,2013-05-16 18:43:00,
2013-05-16 14:48:00,74.6,47.3,29.66,WNW,298,16.0,23.0,38,0.00,,---,0.00,VWS V13.01,2013-05-16 18:48:00,
2013-05-16 14:53:00,74.5,45.1,29.66,WSW,252,15.0,24.0,35,0.00,,---,0.00,VWS V13.01,2013-05-16 18:53:00,
2013-05-16 14:58:00,74.4,46.5,29.67,NNW,330,12.0,27.0,37,0.00,,---,0.00,VWS V13.01,2013-05-16 18:58:00,
2013-05-16 15:03:00,74.7,47.4,29.67,West,261,16.0,20.0,38,0.00,,---,0.00,VWS V13.01,2013-05-16 19:03:00,
2013-05-16 15:08:00,74.6,48.0,29.67,NNW,336,12.0,27.0,39,0.00,,---,0.00,VWS V13.01,2013-05-16 19:08:00,
2013-05-16 15:13:00,74.9,45.4,29.67,NW,313,12.0,27.0,35,0.00,,---,0.00,VWS V13.01,2013-05-16 19:13:00,
2013-05-16 15:18:00,74.8,45.3,29.67,NW,306,12.0,27.0,35,0.00,,---,0.00,VWS V13.01,2013-05-16 19:18:00,
2013-05-16 15:23:00,74.9,47.6,29.67,WNW,294,22.0,27.0,38,0.00,,---,0.00,VWS V13.01,2013-05-16 19:23:00,
2013-05-16 15:28:00,74.8,47.5,29.67,WNW,295,24.0,27.0,38,0.00,,---,0.00,VWS V13.01,2013-05-16 19:28:00,
2013-05-16 15:34:00,74.5,45.8,29.67,WNW,284,12.0,21.0,36,0.00,,---,0.00,VWS V13.01,2013-05-16 19:34:00,
2013-05-16 15:39:00,74.7,46.0,29.66,West,264,20.0,23.0,36,0.00,,---,0.00,VWS V13.01,2013-05-16 19:39:00,
2013-05-16 15:44:00,75.1,48.5,29.67,WNW,284,14.0,23.0,39,0.00,,---,0.00,VWS V13.01,2013-05-16 19:44:00,
2013-05-16 15:49:00,74.7,46.7,29.67,West,269,13.0,27.0,37,0.00,,---,0.00,VWS V13.01,2013-05-16 19:49:00,
2013-05-16 15:54:00,74.4,46.5,29.67,NW,304,8.0,27.0,37,0.00,,---,0.00,VWS V13.01,2013-05-16 19:54:00,
2013-05-16 15:59:00,74.4,46.5,29.67,NNW,335,19.0,27.0,37,0.00,,---,0.00,VWS V13.01,2013-05-16 19:59:00,
2013-05-16 16:04:00,74.4,47.2,29.67,West,281,16.0,21.0,38,0.00,,---,0.00,VWS V13.01,2013-05-16 20:04:00,
2013-05-16 16:09:00,74.4,47.9,29.67,NW,315,13.0,21.0,39,0.00,,---,0.00,VWS V13.01,2013-05-16 20:09:00,
2013-05-16 16:14:00,74.4,45.7,29.67,WNW,300,16.0,21.0,36,0.00,,---,0.00,VWS V13.01,2013-05-16 20:14:00,
2013-05-16 16:19:00,74.0,47.5,29.67,NW,304,18.0,21.0,39,0.00,,---,0.00,VWS V13.01,2013-05-16 20:19:00,
2013-05-16 16:24:00,73.8,45.9,29.67,NW,306,16.0,24.0,37,0.00,,---,0.00,VWS V13.01,2013-05-16 20:24:00,
2013-05-16 16:29:00,73.9,47.4,29.67,NW,309,18.0,26.0,39,0.00,,---,0.00,VWS V13.01,2013-05-16 20:29:00,
2013-05-16 16:35:00,73.5,45.7,29.67,NNW,341,14.0,22.0,37,0.00,,---,0.00,VWS V13.01,2013-05-16 20:35:00,
2013-05-16 16:40:00,73.3,48.2,29.67,NW,307,8.0,22.0,41,0.00,,---,0.00,VWS V13.01,2013-05-16 20:40:00,
2013-05-16 16:45:00,73.6,46.5,29.66,NW,307,20.0,25.0,38,0.00,,---,0.00,VWS V13.01,2013-05-16 20:45:00,
2013-05-16 16:50:00,73.3,46.9,29.68,NW,322,21.0,26.0,39,0.00,,---,0.00,VWS V13.01,2013-05-16 20:50:00,
2013-05-16 16:55:00,73.0,45.9,29.68,West,266,16.0,26.0,38,0.00,,---,0.00,VWS V13.01,2013-05-16 20:55:00,
2013-05-16 17:00:00,73.1,45.3,29.67,WNW,287,14.0,15.0,37,0.00,,---,0.00,VWS V13.01,2013-05-16 21:00:00,
2013-05-16 17:05:00,73.1,46.0,29.67,West,276,15.0,22.0,38,0.00,,---,0.00,VWS V13.01,2013-05-16 21:05:00,
2013-05-16 17:10:00,73.2,46.1,29.68,NW,306,15.0,22.0,38,0.00,,---,0.00,VWS V13.01,2013-05-16 21:10:00,
2013-05-16 17:15:00,73.1,46.0,29.68,WNW,296,18.0,23.0,38,0.00,,---,0.00,VWS V13.01,2013-05-16 21:15:00,
2013-05-16 17:20:00,73.0,45.9,29.68,NW,322,16.0,23.0,38,0.00,,---,0.00,VWS V13.01,2013-05-16 21:20:00,
2013-05-16 17:26:00,73.0,47.3,29.69,NW,304,12.0,23.0,40,0.00,,---,0.00,VWS V13.01,2013-05-16 21:26:00,
2013-05-16 17:31:00,72.9,48.5,29.69,WNW,289,10.0,16.0,42,0.00,,---,0.00,VWS V13.01,2013-05-16 21:31:00,
2013-05-16 17:36:00,72.9,46.5,29.69,WNW,292,13.0,19.0,39,0.00,,---,0.00,VWS V13.01,2013-05-16 21:36:00,
2013-05-16 17:41:00,72.8,46.4,29.69,WNW,298,18.0,27.0,39,0.00,,---,0.00,VWS V13.01,2013-05-16 21:41:00,
2013-05-16 17:46:00,72.4,47.4,29.69,NW,306,14.0,27.0,41,0.00,,---,0.00,VWS V13.01,2013-05-16 21:46:00,
2013-05-16 17:51:00,72.1,46.5,29.69,WNW,286,19.0,27.0,40,0.00,,---,0.00,VWS V13.01,2013-05-16 21:51:00,
2013-05-16 17:56:00,72.0,46.4,29.69,WNW,284,9.0,27.0,40,0.00,,---,0.00,VWS V13.01,2013-05-16 21:56:00,
2013-05-16 18:01:00,72.1,48.4,29.70,WNW,294,13.0,19.0,43,0.00,,---,0.00,VWS V13.01,2013-05-16 22:01:00,
2013-05-16 18:06:00,72.0,47.7,29.70,WNW,298,11.0,20.0,42,0.00,,---,0.00,VWS V13.01,2013-05-16 22:06:00,
2013-05-16 18:11:00,71.9,48.2,29.70,WNW,287,12.0,20.0,43,0.00,,---,0.00,VWS V13.01,2013-05-16 22:11:00,
2013-05-16 18:16:00,71.7,48.0,29.70,NW,319,15.0,23.0,43,0.00,,---,0.00,VWS V13.01,2013-05-16 22:16:00,
2013-05-16 18:21:00,71.4,46.5,29.70,WNW,291,9.0,23.0,41,0.00,,---,0.00,VWS V13.01,2013-05-16 22:21:00,
2013-05-16 18:26:00,71.2,45.0,29.71,WNW,282,11.0,25.0,39,0.00,,---,0.00,VWS V13.01,2013-05-16 22:26:00,
2013-05-16 18:31:00,71.0,46.8,29.71,WNW,302,13.0,18.0,42,0.00,,---,0.00,VWS V13.01,2013-05-16 22:31:00,
2013-05-16 18:37:00,70.8,46.6,29.71,NW,316,11.0,20.0,42,0.00,,---,0.00,VWS V13.01,2013-05-16 22:37:00,
2013-05-16 18:42:00,70.6,45.1,29.71,WNW,300,8.0,20.0,40,0.00,,---,0.00,VWS V13.01,2013-05-16 22:42:00,
2013-05-16 18:47:00,70.6,43.8,29.71,NW,315,11.0,20.0,38,0.00,,---,0.00,VWS V13.01,2013-05-16 22:47:00,
2013-05-16 18:52:00,70.6,43.8,29.71,WNW,284,12.0,20.0,38,0.00,,---,0.00,VWS V13.01,2013-05-16 22:52:00,
2013-05-16 18:57:00,70.4,42.9,29.72,West,281,19.0,21.0,37,0.00,,---,0.00,VWS V13.01,2013-05-16 22:57:00,
2013-05-16 19:02:00,70.2,42.0,29.72,WNW,302,13.0,16.0,36,0.00,,---,0.00,VWS V13.01,2013-05-16 23:02:00,
2013-05-16 19:07:00,70.1,41.2,29.72,West,280,10.0,18.0,35,0.00,,---,0.00,VWS V13.01,2013-05-16 23:07:00,
2013-05-16 19:12:00,70.1,41.2,29.72,West,268,10.0,18.0,35,0.00,,---,0.00,VWS V13.01,2013-05-16 23:12:00,
2013-05-16 19:17:00,69.9,42.5,29.73,WNW,297,5.0,18.0,37,0.00,,---,0.00,VWS V13.01,2013-05-16 23:17:00,
2013-05-16 19:22:00,69.7,42.3,29.73,NW,325,12.0,18.0,37,0.00,,---,0.00,VWS V13.01,2013-05-16 23:22:00,
2013-05-16 19:27:00,69.5,41.4,29.74,NW,307,12.0,18.0,36,0.00,,---,0.00,VWS V13.01,2013-05-16 23:27:00,
2013-05-16 19:32:00,69.4,40.6,29.74,NW,315,9.0,14.0,35,0.00,,---,0.00,VWS V13.01,2013-05-16 23:32:00,
2013-05-16 19:37:00,69.1,41.0,29.74,WNW,296,12.0,15.0,36,0.00,,---,0.00,VWS V13.01,2013-05-16 23:37:00,
2013-05-16 19:42:00,68.7,41.4,29.74,WNW,302,12.0,15.0,37,0.00,,---,0.00,VWS V13.01,2013-05-16 23:42:00,
2013-05-16 19:47:00,68.2,40.2,29.74,WNW,294,12.0,19.0,36,0.00,,---,0.00,VWS V13.01,2013-05-16 23:47:00,
2013-05-16 19:52:00,67.9,41.4,29.74,WNW,300,11.0,19.0,38,0.00,,---,0.00,VWS V13.01,2013-05-16 23:52:00,
2013-05-16 19:58:00,67.5,40.3,29.75,West,272,6.0,19.0,37,0.00,,---,0.00,VWS V13.01,2013-05-16 23:58:00,
2013-05-16 20:03:00,67.1,42.6,29.75,WNW,292,1.0,9.0,41,0.00,,---,0.00,VWS V13.01,2013-05-17 00:03:00,
2013-05-16 20:08:00,66.7,42.9,29.75,WNW,292,4.0,9.0,42,0.00,,---,0.00,VWS V13.01,2013-05-17 00:08:00,
2013-05-16 20:13:00,66.4,44.4,29.75,WNW,292,1.0,9.0,45,0.00,,---,0.00,VWS V13.01,2013-05-17 00:13:00,
2013-05-16 20:18:00,65.8,43.9,29.75,WNW,291,0.0,9.0,45,0.00,,---,0.00,VWS V13.01,2013-05-17 00:18:00,
2013-05-16 20:23:00,65.0,42.6,29.75,WNW,294,0.0,9.0,44,0.00,,---,0.00,VWS V13.01,2013-05-17 00:23:00,
2013-05-16 20:28:00,63.9,42.7,29.75,WNW,294,2.0,9.0,46,0.00,,---,0.00,VWS V13.01,2013-05-17 00:28:00,
2013-05-16 20:33:00,63.2,43.2,29.76,WNW,294,3.0,5.0,48,0.00,,---,0.00,VWS V13.01,2013-05-17 00:33:00,
2013-05-16 20:38:00,63.1,40.9,29.76,NW,319,5.0,8.0,44,0.00,,---,0.00,VWS V13.01,2013-05-17 00:38:00,
2013-05-16 20:43:00,63.6,42.5,29.76,WNW,284,0.0,8.0,46,0.00,,---,0.00,VWS V13.01,2013-05-17 00:43:00,
2013-05-16 20:48:00,63.3,42.2,29.76,WNW,285,0.0,8.0,46,0.00,,---,0.00,VWS V13.01,2013-05-17 00:48:00,
2013-05-16 20:53:00,63.1,42.0,29.76,WNW,284,0.0,8.0,46,0.00,,---,0.00,VWS V13.01,2013-05-17 00:53:00,
2013-05-16 20:58:00,62.4,43.0,29.76,WNW,285,0.0,8.0,49,0.00,,---,0.00,VWS V13.01,2013-05-17 00:58:00,
2013-05-16 21:03:00,61.4,44.6,29.77,WNW,285,0.0,0.0,54,0.00,,---,0.00,VWS V13.01,2013-05-17 01:03:00,
2013-05-16 21:08:00,60.3,43.1,29.77,WNW,285,0.0,1.0,53,0.00,,---,0.00,VWS V13.01,2013-05-17 01:08:00,
2013-05-16 21:13:00,59.2,42.1,29.77,WNW,285,0.0,1.0,53,0.00,,---,0.00,VWS V13.01,2013-05-17 01:13:00,
2013-05-16 21:18:00,59.0,43.3,29.78,WNW,285,0.0,1.0,56,0.00,,---,0.00,VWS V13.01,2013-05-17 01:18:00,
2013-05-16 21:23:00,57.8,45.3,29.78,WNW,285,0.0,1.0,63,0.00,,---,0.00,VWS V13.01,2013-05-17 01:23:00,
2013-05-16 21:29:00,56.7,45.5,29.78,WNW,285,0.0,1.0,66,0.00,,---,0.00,VWS V13.01,2013-05-17 01:29:00,
2013-05-16 21:34:00,55.6,45.6,29.79,WNW,284,0.0,0.0,69,0.00,,---,0.00,VWS V13.01,2013-05-17 01:34:00,
2013-05-16 21:39:00,54.7,45.1,29.79,WNW,285,0.0,0.0,70,0.00,,---,0.00,VWS V13.01,2013-05-17 01:39:00,
2013-05-16 21:44:00,54.0,44.5,29.80,WNW,285,0.0,1.0,70,0.00,,---,0.00,VWS V13.01,2013-05-17 01:44:00,
2013-05-16 21:49:00,53.7,44.5,29.80,WNW,284,0.0,1.0,71,0.00,,---,0.00,VWS V13.01,2013-05-17 01:49:00,
2013-05-16 21:54:00,53.3,44.9,29.80,WNW,285,0.0,1.0,73,0.00,,---,0.00,VWS V13.01,2013-05-17 01:54:00,
2013-05-16 21:59:00,52.6,44.9,29.80,WNW,285,0.0,1.0,75,0.00,,---,0.00,VWS V13.01,2013-05-17 01:59:00,
2013-05-16 22:04:00,51.9,44.2,29.80,WNW,284,0.0,0.0,75,0.00,,---,0.00,VWS V13.01,2013-05-17 02:04:00,
2013-05-16 22:09:00,51.6,44.6,29.80,WNW,285,0.0,0.0,77,0.00,,---,0.00,VWS V13.01,2013-05-17 02:09:00,
2013-05-16 22:14:00,51.4,45.1,29.81,WNW,284,0.0,0.0,79,0.00,,---,0.00,VWS V13.01,2013-05-17 02:14:00,
2013-05-16 22:19:00,50.9,45.0,29.81,WNW,285,0.0,0.0,80,0.00,,---,0.00,VWS V13.01,2013-05-17 02:19:00,
2013-05-16 22:24:00,50.5,44.6,29.81,WNW,285,0.0,0.0,80,0.00,,---,0.00,VWS V13.01,2013-05-17 02:24:00,
2013-05-16 22:29:00,50.2,44.6,29.81,WNW,284,0.0,0.0,81,0.00,,---,0.00,VWS V13.01,2013-05-17 02:29:00,
2013-05-16 22:35:00,49.7,44.1,29.81,WNW,285,0.0,0.0,81,0.00,,---,0.00,VWS V13.01,2013-05-17 02:35:00,
2013-05-16 22:40:00,49.4,44.1,29.82,WNW,285,0.0,0.0,82,0.00,,---,0.00,VWS V13.01,2013-05-17 02:40:00,
2013-05-16 22:45:00,49.2,44.0,29.81,WNW,285,0.0,1.0,82,0.00,,---,0.00,VWS V13.01,2013-05-17 02:45:00,
2013-05-16 22:50:00,49.2,44.6,29.82,WNW,284,0.0,1.0,84,0.00,,---,0.00,VWS V13.01,2013-05-17 02:50:00,
2013-05-16 22:55:00,48.9,43.3,29.82,WNW,285,0.0,1.0,81,0.00,,---,0.00,VWS V13.01,2013-05-17 02:55:00,
2013-05-16 23:00:00,48.9,43.3,29.82,WNW,284,0.0,1.0,81,0.00,,---,0.00,VWS V13.01,2013-05-17 03:00:00,
2013-05-16 23:05:00,48.9,43.0,29.83,WNW,284,0.0,0.0,80,0.00,,---,0.00,VWS V13.01,2013-05-17 03:05:00,
2013-05-16 23:10:00,48.7,43.1,29.82,WNW,285,0.0,0.0,81,0.00,,---,0.00,VWS V13.01,2013-05-17 03:10:00,
2013-05-16 23:15:00,48.4,42.8,29.82,WNW,284,0.0,0.0,81,0.00,,---,0.00,VWS V13.01,2013-05-17 03:15:00,
2013-05-16 23:20:00,47.7,42.5,29.82,WNW,284,0.0,0.0,82,0.00,,---,0.00,VWS V13.01,2013-05-17 03:20:00,
2013-05-16 23:25:00,47.4,42.5,29.82,WNW,285,0.0,0.0,83,0.00,,---,0.00,VWS V13.01,2013-05-17 03:25:00,
2013-05-16 23:31:00,47.3,42.4,29.82,WNW,285,0.0,0.0,83,0.00,,---,0.00,VWS V13.01,2013-05-17 03:31:00,
2013-05-16 23:36:00,47.0,41.8,29.82,WNW,285,0.0,0.0,82,0.00,,---,0.00,VWS V13.01,2013-05-17 03:36:00,
2013-05-16 23:41:00,47.0,42.1,29.82,WNW,284,0.0,0.0,83,0.00,,---,0.00,VWS V13.01,2013-05-17 03:41:00,
2013-05-16 23:46:00,46.5,41.9,29.83,WNW,284,0.0,0.0,84,0.00,,---,0.00,VWS V13.01,2013-05-17 03:46:00,
2013-05-16 23:51:00,46.3,42.3,29.83,WNW,284,0.0,0.0,86,0.00,,---,0.00,VWS V13.01,2013-05-17 03:51:00,
2013-05-16 23:56:00,46.1,42.5,29.83,WNW,285,0.0,0.0,87,0.00,,---,0.00,VWS V13.01,2013-05-17 03:56:00,